Total_Precipitation_Accumulation
0.07 0.11 0.24 0.22 0.19 0.18 0.14 0.11 0.10 0.14 0.14 0.13 0.16 0.18 0.18 0.18 0.17 0.15 0.13 0.12 0.11 0.11 0.13 0.13 0.13 0.17 0.20 0.24 0.30 0.36 0.52 0.66 0.81 0.92 1.05 1.29 1.44 1.53 1.49 1.48 1.55 1.41 1.18 1.17
0.08 0.12 0.10 0.09 0.09 0.09 0.10 0.10 0.11 0.12 0.11 0.10 0.10 0.11 0.11 0.10 0.11 0.11 0.10 0.09 0.08 0.07 0.06 0.06 0.07 0.09 0.12 0.15 0.21 0.29 0.42 0.64 0.86 1.07 1.26 1.44 1.73 1.86 1.86 1.92 1.85 1.79 1.64 1.58
0.07 0.07 0.05 0.05 0.06 0.08 0.09 0.09 0.10 0.10 0.09 0.07 0.07 0.08 0.08 0.08 0.09 0.08 0.08 0.09 0.08 0.07 0.06 0.06 0.05 0.06 0.07 0.09 0.13 0.20 0.31 0.52 0.81 1.11 1.34 1.52 1.74 1.99 2.08 1.97 1.92 1.96 2.01 2.00
0.01 0.01 0.02 0.03 0.04 0.07 0.10 0.08 0.08 0.08 0.09 0.09 0.09 0.13 0.13 0.13 0.13 0.12 0.11 0.12 0.12 0.11 0.10 0.08 0.06 0.05 0.06 0.09 0.12 0.16 0.29 0.43 0.64 0.90 1.19 1.42 1.67 1.96 2.03 1.99 1.98 2.01 2.10 2.15
0.01 0.00 0.00 0.01 0.02 0.03 0.05 0.04 0.05 0.06 0.08 0.08 0.08 0.13 0.16 0.15 0.19 0.19 0.19 0.20 0.17 0.15 0.14 0.12 0.10 0.10 0.11 0.14 0.16 0.22 0.35 0.47 0.66 0.89 1.16 1.43 1.62 1.78 1.94 1.94 1.88 1.81 1.83 1.85
0.00 0.00 0.00 0.00 0.00 0.01 0.01 0.02 0.04 0.04 0.06 0.06 0.05 0.13 0.22 0.22 0.21 0.19 0.21 0.21 0.16 0.13 0.14 0.17 0.21 0.21 0.21 0.23 0.27 0.34 0.45 0.64 0.79 0.88 1.00 1.12 1.31 1.56 1.67 1.76 1.76 1.76 1.71 1.61
0.00 0.00 0.00 0.00 0.00 0.00 0.01 0.05 0.09 0.10 0.13 0.12 0.09 0.20 0.31 0.26 0.22 0.21 0.21 0.19 0.19 0.21 0.25 0.32 0.42 0.39 0.36 0.38 0.46 0.52 0.58 0.65 0.70 0.69 0.75 0.86 1.00 1.16 1.24 1.35 1.53 1.57 1.57 1.50
0.00 0.00 0.00 0.00 0.00 0.01 0.01 0.05 0.12 0.16 0.18 0.21 0.26 0.39 0.43 0.35 0.27 0.24 0.21 0.18 0.21 0.29 0.39 0.54 0.65 0.69 0.63 0.60 0.61 0.57 0.57 0.54 0.54 0.56 0.60 0.67 0.72 0.81 0.87 0.92 1.05 1.18 1.17 1.12
0.00 0.00 0.00 0.00 0.00 0.01 0.02 0.03 0.06 0.14 0.15 0.21 0.34 0.51 0.50 0.35 0.28 0.27 0.26 0.23 0.29 0.42 0.56 0.73 0.85 0.92 0.86 0.77 0.70 0.63 0.61 0.58 0.52 0.51 0.56 0.61 0.62 0.63 0.64 0.66 0.65 0.69 0.76 0.79
0.02 0.02 0.01 0.00 0.01 0.01 0.02 0.04 0.10 0.22 0.33 0.36 0.39 0.52 0.60 0.49 0.38 0.36 0.38 0.44 0.55 0.73 0.79 0.91 0.98 0.96 0.95 0.98 0.89 0.73 0.65 0.65 0.61 0.68 0.66 0.59 0.54 0.51 0.49 0.52 0.57 0.54 0.60 0.67
0.08 0.08 0.03 0.02 0.03 0.06 0.09 0.13 0.20 0.32 0.42 0.56 0.68 0.81 0.69 0.57 0.55 0.53 0.56 0.72 0.81 0.92 0.99 1.01 1.08 1.01 0.88 0.87 0.83 0.82 0.76 0.70 0.70 0.76 0.75 0.62 0.56 0.54 0.52 0.48 0.47 0.54 0.61 0.66
0.16 0.22 0.13 0.04 0.08 0.13 0.23 0.35 0.45 0.61 0.65 0.63 0.86 1.05 0.78 0.64 0.65 0.66 0.65 0.63 0.65 0.82 0.94 0.98 1.04 0.96 0.80 0.75 0.65 0.70 0.78 0.76 0.81 0.82 0.75 0.65 0.62 0.61 0.65 0.62 0.51 0.51 0.57 0.55
0.25 0.39 0.30 0.15 0.23 0.32 0.39 0.48 0.60 0.73 0.83 0.83 0.92 1.05 0.83 0.62 0.58 0.63 0.72 0.70 0.67 0.71 0.73 0.72 0.73 0.80 0.75 0.71 0.63 0.69 0.75 0.79 0.82 0.84 0.82 0.72 0.60 0.61 0.62 0.59 0.51 0.49 0.51 0.50
0.23 0.38 0.43 0.34 0.36 0.43 0.42 0.39 0.45 0.66 0.89 0.92 0.98 0.95 0.74 0.62 0.56 0.59 0.65 0.71 0.66 0.56 0.52 0.50 0.46 0.52 0.55 0.57 0.61 0.66 0.76 0.88 0.92 0.90 0.84 0.80 0.73 0.71 0.64 0.52 0.43 0.44 0.44 0.41
0.16 0.17 0.20 0.18 0.19 0.25 0.32 0.34 0.43 0.56 0.74 0.97 0.87 0.67 0.55 0.52 0.48 0.50 0.55 0.49 0.43 0.39 0.37 0.35 0.32 0.32 0.34 0.37 0.45 0.52 0.65 0.80 0.91 0.96 0.90 0.83 0.78 0.67 0.56 0.50 0.39 0.35 0.31 0.31
0.23 0.18 0.08 0.07 0.10 0.16 0.28 0.41 0.54 0.60 0.67 0.69 0.60 0.56 0.42 0.36 0.32 0.32 0.37 0.37 0.36 0.31 0.27 0.24 0.24 0.21 0.23 0.29 0.36 0.36 0.48 0.62 0.73 0.78 0.79 0.79 0.75 0.60 0.51 0.43 0.34 0.28 0.26 0.26
0.10 0.12 0.09 0.07 0.09 0.17 0.40 0.53 0.60 0.59 0.54 0.45 0.42 0.37 0.26 0.24 0.17 0.16 0.21 0.25 0.30 0.28 0.23 0.21 0.20 0.21 0.23 0.30 0.31 0.32 0.41 0.52 0.56 0.60 0.63 0.65 0.60 0.47 0.42 0.33 0.28 0.28 0.26 0.27
0.10 0.13 0.17 0.12 0.13 0.34 0.61 0.51 0.45 0.48 0.37 0.22 0.20 0.20 0.19 0.15 0.11 0.08 0.08 0.11 0.13 0.16 0.16 0.21 0.18 0.17 0.19 0.24 0.29 0.37 0.40 0.41 0.41 0.45 0.48 0.47 0.46 0.41 0.34 0.26 0.25 0.26 0.26 0.28
0.17 0.22 0.25 0.22 0.23 0.42 0.57 0.38 0.34 0.39 0.33 0.16 0.11 0.11 0.09 0.07 0.05 0.03 0.02 0.05 0.06 0.06 0.07 0.10 0.09 0.09 0.10 0.10 0.11 0.14 0.17 0.19 0.23 0.30 0.36 0.40 0.39 0.36 0.30 0.25 0.31 0.37 0.34 0.32
0.30 0.32 0.32 0.31 0.37 0.50 0.39 0.15 0.15 0.27 0.38 0.13 0.06 0.05 0.04 0.03 0.04 0.02 0.02 0.04 0.03 0.02 0.02 0.03 0.03 0.03 0.03 0.02 0.02 0.03 0.05 0.09 0.13 0.19 0.24 0.28 0.31 0.34 0.37 0.45 0.52 0.53 0.49 0.40
0.19 0.25 0.31 0.39 0.56 0.57 0.33 0.13 0.15 0.28 0.40 0.18 0.05 0.02 0.01 0.01 0.01 0.00 0.02 0.03 0.02 0.01 0.00 0.00 0.01 0.01 0.00 0.00 0.00 0.00 0.01 0.02 0.02 0.04 0.10 0.18 0.29 0.35 0.44 0.56 0.58 0.56 0.51 0.41
0.18 0.28 0.38 0.50 0.66 0.74 0.38 0.19 0.21 0.19 0.13 0.10 0.04 0.01 0.01 0.00 0.00 0.00 0.01 0.01 0.01 0.01 0.00 0.00 0.00 0.00 0.00 0.00 0.00 0.00 0.00 0.00 0.01 0.03 0.07 0.13 0.20 0.29 0.42 0.51 0.50 0.49 0.47 0.44
0.18 0.33 0.45 0.50 0.56 0.47 0.28 0.16 0.11 0.08 0.08 0.03 0.01 0.01 0.00 0.00 0.00 0.00 0.01 0.01 0.01 0.01 0.00 0.00 0.00 0.00 0.00 0.00 0.00 0.00 0.00 0.00 0.00 0.01 0.02 0.06 0.11 0.22 0.36 0.39 0.39 0.42 0.44 0.43
0.08 0.11 0.18 0.20 0.15 0.14 0.11 0.08 0.04 0.03 0.04 0.01 0.00 0.00 0.00 0.00 0.00 0.00 0.00 0.01 0.00 0.00 0.00 0.00 0.00 0.00 0.00 0.00 0.00 0.00 0.00 0.00 0.00 0.00 0.00 0.01 0.02 0.05 0.10 0.15 0.20 0.26 0.31 0.32
0.09 0.10 0.17 0.20 0.10 0.05 0.04 0.04 0.02 0.02 0.02 0.01 0.00 0.00 0.00 0.00 0.00 0.00 0.00 0.00 0.00 0.00 0.00 0.00 0.00 0.00 0.00 0.00 0.00 0.00 0.00 0.00 0.00 0.00 0.00 0.01 0.02 0.03 0.04 0.06 0.09 0.12 0.15 0.19
0.05 0.12 0.16 0.20 0.12 0.06 0.04 0.03 0.02 0.02 0.01 0.01 0.00 0.00 0.00 0.00 0.00 0.00 0.00 0.00 0.00 0.00 0.00 0.00 0.00 0.00 0.00 0.00 0.00 0.00 0.00 0.00 0.00 0.00 0.00 0.00 0.01 0.01 0.01 0.02 0.03 0.04 0.06 0.09